Regional Weather Roundup
Issued by NWS

Home | Current Version | Previous Version | Graphics & Text | Print | Product List | Glossary On
Versions: 1 2 3 4 5 6 7 8 9 10 11 12 13 14 15 16 17 18 19 20 21 22 23 24 25 26 27 28 29 30 31 32 33 34 35 36 37 38 39 40 41 42 43 44 45 46 47 48 49 50
000
ASUS43 KTOP 250508
RWRKS

WEATHER ROUNDUP FOR KANSAS
NATIONAL WEATHER SERVICE GOODLAND KS
1200 AM CDT WED MAY 25 2016

NOTE:  "FAIR" INDICATES FEW OR NO CLOUDS BELOW 12,000 FEET WITH NO
SIGNIFICANT WEATHER AND/OR OBSTRUCTIONS TO VISIBILITY.

KSZ001>006-013>018-027>032-041>047-250600-
NORTHWEST KANSAS

CITY           SKY/WX    TMP DP  RH WIND       PRES   REMARKS
GOODLAND       CLEAR     57  54  89 E7        29.76S
HAYS           CLOUDY    55  52  88 SE20G25   29.82R
HILL CITY      CLOUDY    63  55  75 SE14      29.79R
RUSSELL        CLOUDY    62  56  80 E15       29.77F
$$

KSZ061>065-074>080-084>089-250600-
SOUTHWEST KANSAS

CITY           SKY/WX    TMP DP  RH WIND       PRES   REMARKS
DODGE CITY     CLOUDY    64  63  96 SE15      29.81S
ELKHART          N/A     65  62  90 S12         N/A
GARDEN CITY    CLEAR     70  63  78 SE20      29.77R
GREAT BEND     CLOUDY    63  55  77 SE18G24   29.86R
LIBERAL        CLEAR     72  64  78 S17       29.80R
PRATT          CLOUDY    58  57  97 E9G17     29.87R
$$

KSZ066>073-081>083-090>101-250600-
SOUTHEAST KANSAS

CITY           SKY/WX    TMP DP  RH WIND       PRES   REMARKS
CHANUTE        CLOUDY    71  67  87 SE6       29.91R
COFFEYVILLE    CLOUDY    73  61  65 S16G22    29.89R
HUTCHINSON     CLOUDY    66  58  75 NE12G21   29.90F THUNDER
MEDICINE LODGE   N/A     66  58  75 E15       29.85R
NEWTON           N/A    N/A N/A N/A MISG        N/A  THUNDER
PARSONS        CLOUDY    74  62  66 S10G21    29.90R
WICHITA INTL   TSTM      63  60  90 E7        29.91F
WICHITA JABRA  TSTM      60  60 100 VRB7      29.91F FOG
WICHITA MCCONL TSTM      61  61 100 N14G25    29.93F VSB 1
WINFIELD       CLOUDY    72  67  84 S20G25    29.86F
$$

KSZ007>012-019>026-033>040-048>060-102>105-250600-
NORTHEAST KANSAS

CITY           SKY/WX    TMP DP  RH WIND       PRES   REMARKS
CONCORDIA      RAIN      63  56  78 SW18G29   29.93S
EMPORIA        CLOUDY    72  68  87 SE12      29.86F
LAWRENCE       CLOUDY    71  68  90 SE6       29.89R
MANHATTAN      TSTM      64  62  93 W10G22    29.95R FOG
MARYSVILLE     TSTM      61  59  94 W22G35    29.94R
OLATHE IND     CLOUDY    70  67  90 SE7       29.91R
OLATHE EXE     CLOUDY    68  65  90 SE6       29.91R
SALINA         TSTM      63  60  90 NE12      29.95F FOG
TOPEKA BILLARD CLOUDY    73  69  87 SE7       29.88S
TOPEKA FORBES  CLOUDY    74  69  85 SE9       29.89S
$$




USA.gov is the U.S. government's official web portal to all federal, state and local government web resources and services.